Tracking 19794 objects as of 22-Jul-2019
HD Live streaming from Space Station
objects crossing your sky now

COSMOS 1275 DEB

Track COSMOS 1275 DEB now!
10-day predictions


NORAD ID: 20505
Int'l Code: 1981-053MS
Perigee: 782.3 km
Apogee: 811.7 km
Inclination: 83.2 °
Period: 100.7 minutes
Semi major axis: 7167 km
RCS: 0.0047 m2 (small)
Launch date: June 4, 1981
Source: Commonwealth of Independent States (former USSR) (CIS)
Launch site: PLESETSK MISSILE AND SPACE COMPLEX (PKMTR)

Note: This is SATELLITE DEBRIS
aabbcc
Your satellite tracking list
Your tracking list is empty




NASA's NSSDC Master Catalog

Two Line Element Set (TLE):
1 20505U 81053MM  19202.14275590  .00000798  00000-0  29882-3 0  9992
2 20505  83.1594 104.5757 0020517 313.7954  46.1536 14.30570049606774
Source of the keplerian elements: AFSPC